Year,Month,Day,Hour,Minute,Value (Times are PST for temperature in C)
2006,05,14,00,00,6.70
2006,05,14,00,01,6.70
2006,05,14,00,02,6.70
2006,05,14,00,03,6.60
2006,05,14,00,04,6.60
2006,05,14,00,05,6.60
2006,05,14,00,06,6.60
2006,05,14,00,07,6.60
2006,05,14,00,08,6.60
2006,05,14,00,09,6.60
2006,05,14,00,10,6.60
2006,05,14,00,11,6.60
2006,05,14,00,12,6.60
2006,05,14,00,13,6.60
2006,05,14,00,14,6.50
2006,05,14,00,15,6.40
2006,05,14,00,16,6.40
2006,05,14,00,17,6.40
2006,05,14,00,18,6.40
2006,05,14,00,19,6.40
2006,05,14,00,20,6.40
2006,05,14,00,21,6.40
2006,05,14,00,22,6.40
2006,05,14,00,23,6.40
2006,05,14,00,24,6.30
2006,05,14,00,25,6.30
2006,05,14,00,26,6.30
2006,05,14,00,27,6.30
2006,05,14,00,28,6.30
2006,05,14,00,29,6.20
2006,05,14,00,30,6.20
2006,05,14,00,31,6.20
2006,05,14,00,32,6.20
2006,05,14,00,33,6.20
2006,05,14,00,34,6.20
2006,05,14,00,35,6.20
2006,05,14,00,36,6.20
2006,05,14,00,37,6.20
2006,05,14,00,38,6.20
2006,05,14,00,39,6.20
2006,05,14,00,40,6.20
2006,05,14,00,41,6.20
2006,05,14,00,42,6.20
2006,05,14,00,43,6.10
2006,05,14,00,44,6.10
2006,05,14,00,45,6.10
2006,05,14,00,46,6.10
2006,05,14,00,47,6.10
2006,05,14,00,48,6.10
2006,05,14,00,49,6.10
2006,05,14,00,50,6.10
2006,05,14,00,51,6.10
2006,05,14,00,52,6.00
2006,05,14,00,53,6.00
2006,05,14,00,54,6.00
2006,05,14,00,55,6.00
2006,05,14,00,56,6.00
2006,05,14,00,57,6.00
2006,05,14,00,58,6.00
2006,05,14,00,59,6.00
2006,05,14,01,00,6.00
2006,05,14,01,01,6.00
2006,05,14,01,02,5.90
2006,05,14,01,03,5.90
2006,05,14,01,04,5.90
2006,05,14,01,05,5.90
2006,05,14,01,06,5.90
2006,05,14,01,07,5.90
2006,05,14,01,08,5.90
2006,05,14,01,09,5.90
2006,05,14,01,10,5.80
2006,05,14,01,11,5.80
2006,05,14,01,12,5.80
2006,05,14,01,13,5.80
2006,05,14,01,14,5.80
2006,05,14,01,15,5.80
2006,05,14,01,16,5.80
2006,05,14,01,17,5.70
2006,05,14,01,18,5.70
2006,05,14,01,19,5.70
2006,05,14,01,20,5.70
2006,05,14,01,21,5.70
2006,05,14,01,22,5.70
2006,05,14,01,23,5.70
2006,05,14,01,24,5.70
2006,05,14,01,25,5.70
2006,05,14,01,26,5.70
2006,05,14,01,27,5.70
2006,05,14,01,28,5.70
2006,05,14,01,29,5.70
2006,05,14,01,30,5.70
2006,05,14,01,31,5.60
2006,05,14,01,32,5.60
2006,05,14,01,33,5.60
2006,05,14,01,34,5.60
2006,05,14,01,35,5.60
2006,05,14,01,36,5.50
2006,05,14,01,37,5.50
2006,05,14,01,38,5.50
2006,05,14,01,39,5.50
2006,05,14,01,40,5.40
2006,05,14,01,41,5.40
2006,05,14,01,42,5.40
2006,05,14,01,43,5.30
2006,05,14,01,44,5.30
2006,05,14,01,45,5.30
2006,05,14,01,46,5.30
2006,05,14,01,47,5.30
2006,05,14,01,48,5.30
2006,05,14,01,49,5.30
2006,05,14,01,50,5.30
2006,05,14,01,51,5.30
2006,05,14,01,52,5.30
2006,05,14,01,53,5.30
2006,05,14,01,54,5.30
2006,05,14,01,55,5.30
2006,05,14,01,56,5.30
2006,05,14,01,57,5.30
2006,05,14,01,58,5.30
2006,05,14,01,59,5.30
2006,05,14,02,00,5.30
2006,05,14,02,01,5.30
2006,05,14,02,02,5.30
2006,05,14,02,03,5.20
2006,05,14,02,04,5.20
2006,05,14,02,05,5.20
2006,05,14,02,06,5.20
2006,05,14,02,07,5.20
2006,05,14,02,08,5.20
2006,05,14,02,09,5.20
2006,05,14,02,10,5.20
2006,05,14,02,11,5.20
2006,05,14,02,12,5.20
2006,05,14,02,13,5.10
2006,05,14,02,14,5.10
2006,05,14,02,15,5.10
2006,05,14,02,16,5.10
2006,05,14,02,17,5.10
2006,05,14,02,18,5.10
2006,05,14,02,19,5.10
2006,05,14,02,20,5.10
2006,05,14,02,21,5.10
2006,05,14,02,22,5.10
2006,05,14,02,23,5.10
2006,05,14,02,24,5.10
2006,05,14,02,25,5.10
2006,05,14,02,26,5.10
2006,05,14,02,27,5.10
2006,05,14,02,28,5.10
2006,05,14,02,29,5.00
2006,05,14,02,30,4.90
2006,05,14,02,31,4.90
2006,05,14,02,32,4.90
2006,05,14,02,33,4.90
2006,05,14,02,34,4.90
2006,05,14,02,35,4.90
2006,05,14,02,36,4.90
2006,05,14,02,37,4.90
2006,05,14,02,38,4.90
2006,05,14,02,39,4.90
2006,05,14,02,40,4.90
2006,05,14,02,41,4.90
2006,05,14,02,42,4.90
2006,05,14,02,43,4.80
2006,05,14,02,44,4.80
2006,05,14,02,45,4.80
2006,05,14,02,46,4.80
2006,05,14,02,47,4.80
2006,05,14,02,48,4.80
2006,05,14,02,49,4.80
2006,05,14,02,50,4.80
2006,05,14,02,51,4.70
2006,05,14,02,52,4.70
2006,05,14,02,53,4.70
2006,05,14,02,54,4.70
2006,05,14,02,55,4.70
2006,05,14,02,56,4.70
2006,05,14,02,57,4.70
2006,05,14,02,58,4.70
2006,05,14,02,59,4.70
2006,05,14,03,00,4.70
2006,05,14,03,01,4.60
2006,05,14,03,02,4.60
2006,05,14,03,03,4.60
2006,05,14,03,04,4.60
2006,05,14,03,05,4.60
2006,05,14,03,06,4.60
2006,05,14,03,07,4.60
2006,05,14,03,08,4.60
2006,05,14,03,09,4.60
2006,05,14,03,10,4.60
2006,05,14,03,11,4.60
2006,05,14,03,12,4.60
2006,05,14,03,13,4.60
2006,05,14,03,14,4.60
2006,05,14,03,15,4.60
2006,05,14,03,16,4.60
2006,05,14,03,17,4.50
2006,05,14,03,18,4.50
2006,05,14,03,19,4.50
2006,05,14,03,20,4.50
2006,05,14,03,21,4.50
2006,05,14,03,22,4.50
2006,05,14,03,23,4.50
2006,05,14,03,24,4.50
2006,05,14,03,25,4.50
2006,05,14,03,26,4.50
2006,05,14,03,27,4.40
2006,05,14,03,28,4.40
2006,05,14,03,29,4.40
2006,05,14,03,30,4.40
2006,05,14,03,31,4.40
2006,05,14,03,32,4.40
2006,05,14,03,33,4.30
2006,05,14,03,34,4.30
2006,05,14,03,35,4.30
2006,05,14,03,36,4.30
2006,05,14,03,37,4.30
2006,05,14,03,38,4.30
2006,05,14,03,39,4.30
2006,05,14,03,40,4.20
2006,05,14,03,41,4.20
2006,05,14,03,42,4.20
2006,05,14,03,43,4.20
2006,05,14,03,44,4.20
2006,05,14,03,45,4.20
2006,05,14,03,46,4.20
2006,05,14,03,47,4.20
2006,05,14,03,48,4.20
2006,05,14,03,49,4.20
2006,05,14,03,50,4.20
2006,05,14,03,51,4.20
2006,05,14,03,52,4.20
2006,05,14,03,53,4.20
2006,05,14,03,54,4.20
2006,05,14,03,55,4.20
2006,05,14,03,56,4.20
2006,05,14,03,57,4.20
2006,05,14,03,58,4.20
2006,05,14,03,59,4.20
2006,05,14,04,00,4.20
2006,05,14,04,01,4.20
2006,05,14,04,02,4.20
2006,05,14,04,03,4.20
2006,05,14,04,04,4.20
2006,05,14,04,05,4.20
2006,05,14,04,06,4.20
2006,05,14,04,07,4.20
2006,05,14,04,08,4.20
2006,05,14,04,09,4.10
2006,05,14,04,10,4.10
2006,05,14,04,11,4.10
2006,05,14,04,12,4.10
2006,05,14,04,13,4.10
2006,05,14,04,14,4.10
2006,05,14,04,15,4.10
2006,05,14,04,16,4.10
2006,05,14,04,17,4.10
2006,05,14,04,18,4.10
2006,05,14,04,19,4.10
2006,05,14,04,20,4.00
2006,05,14,04,21,4.00
2006,05,14,04,22,4.00
2006,05,14,04,23,4.00
2006,05,14,04,24,4.00
2006,05,14,04,25,4.00
2006,05,14,04,26,4.00
2006,05,14,04,27,4.00
2006,05,14,04,28,4.00
2006,05,14,04,29,4.00
2006,05,14,04,30,4.00
2006,05,14,04,31,4.00
2006,05,14,04,32,4.00
2006,05,14,04,33,4.00
2006,05,14,04,34,4.00
2006,05,14,04,35,4.00
2006,05,14,04,36,4.00
2006,05,14,04,37,4.00
2006,05,14,04,38,4.00
2006,05,14,04,39,4.00
2006,05,14,04,40,4.00
2006,05,14,04,41,4.00
2006,05,14,04,42,3.90
2006,05,14,04,43,3.90
2006,05,14,04,44,3.90
2006,05,14,04,45,3.90
2006,05,14,04,46,3.90
2006,05,14,04,47,3.90
2006,05,14,04,48,3.90
2006,05,14,04,49,3.80
2006,05,14,04,50,3.80
2006,05,14,04,51,3.80
2006,05,14,04,52,3.80
2006,05,14,04,53,3.80
2006,05,14,04,54,3.80
2006,05,14,04,55,3.80
2006,05,14,04,56,3.80
2006,05,14,04,57,3.80
2006,05,14,04,58,3.70
2006,05,14,04,59,3.70
2006,05,14,05,00,3.70
2006,05,14,05,01,3.70
2006,05,14,05,02,3.70
2006,05,14,05,03,3.70
2006,05,14,05,04,3.70
2006,05,14,05,05,3.70
2006,05,14,05,06,3.70
2006,05,14,05,07,3.70
2006,05,14,05,08,3.70
2006,05,14,05,09,3.70
2006,05,14,05,10,3.70
2006,05,14,05,11,3.70
2006,05,14,05,12,3.80
2006,05,14,05,13,3.80
2006,05,14,05,14,3.70
2006,05,14,05,15,3.70
2006,05,14,05,16,3.70
2006,05,14,05,17,3.70
2006,05,14,05,18,3.70
2006,05,14,05,19,3.70
2006,05,14,05,20,3.70
2006,05,14,05,21,3.70
2006,05,14,05,22,3.70
2006,05,14,05,23,3.70
2006,05,14,05,24,3.70
2006,05,14,05,25,3.70
2006,05,14,05,26,3.60
2006,05,14,05,27,3.60
2006,05,14,05,28,3.60
2006,05,14,05,29,3.60
2006,05,14,05,30,3.60
2006,05,14,05,31,3.60
2006,05,14,05,32,3.60
2006,05,14,05,33,3.60
2006,05,14,05,34,3.60
2006,05,14,05,35,3.50
2006,05,14,05,36,3.50
2006,05,14,05,37,3.50
2006,05,14,05,38,3.50
2006,05,14,05,39,3.50
2006,05,14,05,40,3.50
2006,05,14,05,41,3.50
2006,05,14,05,42,3.50
2006,05,14,05,43,3.50
2006,05,14,05,44,3.50
2006,05,14,05,45,3.50
2006,05,14,05,46,3.50
2006,05,14,05,47,3.50
2006,05,14,05,48,3.50
2006,05,14,05,49,3.50
2006,05,14,05,50,3.50
2006,05,14,05,51,3.50
2006,05,14,05,52,3.50
2006,05,14,05,53,3.60
2006,05,14,05,54,3.60
2006,05,14,05,55,3.60
2006,05,14,05,56,3.60
2006,05,14,05,57,3.60
2006,05,14,05,58,3.60
2006,05,14,05,59,3.60
2006,05,14,06,00,3.60
2006,05,14,06,01,3.70
2006,05,14,06,02,3.70
2006,05,14,06,03,3.70
2006,05,14,06,04,3.80
2006,05,14,06,05,3.80
2006,05,14,06,06,3.80
2006,05,14,06,07,3.80
2006,05,14,06,08,3.80
2006,05,14,06,09,3.80
2006,05,14,06,10,3.80
2006,05,14,06,11,3.90
2006,05,14,06,12,3.90
2006,05,14,06,13,4.00
2006,05,14,06,14,4.00
2006,05,14,06,15,4.10
2006,05,14,06,16,4.10
2006,05,14,06,17,4.20
2006,05,14,06,18,4.20
2006,05,14,06,19,4.20
2006,05,14,06,20,4.20
2006,05,14,06,21,4.20
2006,05,14,06,22,4.30
2006,05,14,06,23,4.30
2006,05,14,06,24,4.40
2006,05,14,06,25,4.50
2006,05,14,06,26,4.50
2006,05,14,06,27,4.60
2006,05,14,06,28,4.70
2006,05,14,06,29,4.70
2006,05,14,06,30,4.80
2006,05,14,06,31,5.00
2006,05,14,06,32,5.10
2006,05,14,06,33,5.20
2006,05,14,06,34,5.40
2006,05,14,06,35,5.50
2006,05,14,06,36,5.60
2006,05,14,06,37,5.70
2006,05,14,06,38,5.70
2006,05,14,06,39,5.80
2006,05,14,06,40,5.90
2006,05,14,06,41,6.00
2006,05,14,06,42,6.00
2006,05,14,06,43,6.10
2006,05,14,06,44,6.20
2006,05,14,06,45,6.20
2006,05,14,06,46,6.30
2006,05,14,06,47,6.30
2006,05,14,06,48,6.40
2006,05,14,06,49,6.50
2006,05,14,06,50,6.60
2006,05,14,06,51,6.60
2006,05,14,06,52,6.70
2006,05,14,06,53,6.80
2006,05,14,06,54,6.80
2006,05,14,06,55,6.80
2006,05,14,06,56,6.90
2006,05,14,06,57,7.00
2006,05,14,06,58,7.10
2006,05,14,06,59,7.20
2006,05,14,07,00,7.30
2006,05,14,07,01,7.40
2006,05,14,07,02,7.50
2006,05,14,07,03,7.60
2006,05,14,07,04,7.60
2006,05,14,07,05,7.70
2006,05,14,07,06,7.70
2006,05,14,07,07,7.70
2006,05,14,07,08,7.80
2006,05,14,07,09,7.90
2006,05,14,07,10,8.00
2006,05,14,07,11,8.00
2006,05,14,07,12,8.10
2006,05,14,07,13,8.20
2006,05,14,07,14,8.20
2006,05,14,07,15,8.20
2006,05,14,07,16,8.30
2006,05,14,07,17,8.30
2006,05,14,07,18,8.30
2006,05,14,07,19,8.30
2006,05,14,07,20,8.30
2006,05,14,07,21,8.30
2006,05,14,07,22,8.40
2006,05,14,07,23,8.40
2006,05,14,07,24,8.40
2006,05,14,07,25,8.40
2006,05,14,07,26,8.50
2006,05,14,07,27,8.50
2006,05,14,07,28,8.50
2006,05,14,07,29,8.60
2006,05,14,07,30,8.60
2006,05,14,07,31,8.70
2006,05,14,07,32,8.80
2006,05,14,07,33,8.80
2006,05,14,07,34,8.90
2006,05,14,07,35,9.00
2006,05,14,07,36,9.00
2006,05,14,07,37,9.10
2006,05,14,07,38,9.20
2006,05,14,07,39,9.20
2006,05,14,07,40,9.30
2006,05,14,07,41,9.40
2006,05,14,07,42,9.40
2006,05,14,07,43,9.50
2006,05,14,07,44,9.50
2006,05,14,07,45,9.60
2006,05,14,07,46,9.70
2006,05,14,07,47,9.70
2006,05,14,07,48,9.70
2006,05,14,07,49,9.80
2006,05,14,07,50,9.90
2006,05,14,07,51,9.90
2006,05,14,07,52,10.00
2006,05,14,07,53,10.10
2006,05,14,07,54,10.10
2006,05,14,07,55,10.20
2006,05,14,07,56,10.20
2006,05,14,07,57,10.30
2006,05,14,07,58,10.40
2006,05,14,07,59,10.50
2006,05,14,08,00,10.60
2006,05,14,08,01,10.80
2006,05,14,08,02,10.90
2006,05,14,08,03,10.90
2006,05,14,08,04,11.00
2006,05,14,08,05,11.10
2006,05,14,08,06,11.20
2006,05,14,08,07,11.30
2006,05,14,08,08,11.50
2006,05,14,08,09,11.60
2006,05,14,08,10,11.80
2006,05,14,08,11,11.90
2006,05,14,08,12,12.00
2006,05,14,08,13,12.00
2006,05,14,08,14,12.10
2006,05,14,08,15,12.20
2006,05,14,08,16,12.30
2006,05,14,08,17,12.30
2006,05,14,08,18,12.40
2006,05,14,08,19,12.40
2006,05,14,08,20,12.50
2006,05,14,08,21,12.50
2006,05,14,08,22,12.60
2006,05,14,08,23,12.70
2006,05,14,08,24,12.80
2006,05,14,08,25,12.90
2006,05,14,08,26,13.00
2006,05,14,08,27,13.10
2006,05,14,08,28,13.20
2006,05,14,08,29,13.30
2006,05,14,08,30,13.40
2006,05,14,08,31,13.40
2006,05,14,08,32,13.40
2006,05,14,08,33,13.30
2006,05,14,08,34,13.30
2006,05,14,08,35,13.30
2006,05,14,08,36,13.30
2006,05,14,08,37,13.30
2006,05,14,08,38,13.30
2006,05,14,08,39,13.30
2006,05,14,08,40,13.40
2006,05,14,08,41,13.50
2006,05,14,08,42,13.50
2006,05,14,08,43,13.50
2006,05,14,08,44,13.40
2006,05,14,08,45,13.50
2006,05,14,08,46,13.50
2006,05,14,08,47,13.50
2006,05,14,08,48,13.50
2006,05,14,08,49,13.50
2006,05,14,08,50,13.60
2006,05,14,08,51,13.60
2006,05,14,08,52,13.60
2006,05,14,08,53,13.70
2006,05,14,08,54,13.70
2006,05,14,08,55,13.70
2006,05,14,08,56,13.70
2006,05,14,08,57,13.70
2006,05,14,08,58,13.70
2006,05,14,08,59,13.70
2006,05,14,09,00,13.70
2006,05,14,09,01,13.70
2006,05,14,09,02,13.60
2006,05,14,09,03,13.60
2006,05,14,09,04,13.60
2006,05,14,09,05,13.50
2006,05,14,09,06,13.60
2006,05,14,09,07,13.60
2006,05,14,09,08,13.60
2006,05,14,09,09,13.60
2006,05,14,09,10,13.60
2006,05,14,09,11,13.60
2006,05,14,09,12,13.60
2006,05,14,09,13,13.50
2006,05,14,09,14,13.50
2006,05,14,09,15,13.50
2006,05,14,09,16,13.50
2006,05,14,09,17,13.50
2006,05,14,09,18,13.60
2006,05,14,09,19,13.60
2006,05,14,09,20,13.60
2006,05,14,09,21,13.60
2006,05,14,09,22,13.60
2006,05,14,09,23,13.60
2006,05,14,09,24,13.60
2006,05,14,09,25,13.50
2006,05,14,09,26,13.50
2006,05,14,09,27,13.50
2006,05,14,09,28,13.50
2006,05,14,09,29,13.50
2006,05,14,09,30,13.50
2006,05,14,09,31,13.60
2006,05,14,09,32,13.60
2006,05,14,09,33,13.60
2006,05,14,09,34,13.60
2006,05,14,09,35,13.70
2006,05,14,09,36,13.70
2006,05,14,09,37,13.70
2006,05,14,09,38,13.70
2006,05,14,09,39,13.70
2006,05,14,09,40,13.80
2006,05,14,09,41,13.80
2006,05,14,09,42,13.80
2006,05,14,09,43,13.70
2006,05,14,09,44,13.70
2006,05,14,09,45,13.70
2006,05,14,09,46,13.60
2006,05,14,09,47,13.70
2006,05,14,09,48,13.70
2006,05,14,09,49,13.70
2006,05,14,09,50,13.70
2006,05,14,09,51,13.70
2006,05,14,09,52,13.80
2006,05,14,09,53,13.80
2006,05,14,09,54,13.90
2006,05,14,09,55,13.90
2006,05,14,09,56,13.90
2006,05,14,09,57,13.90
2006,05,14,09,58,13.90
2006,05,14,09,59,13.90
2006,05,14,10,00,13.90
2006,05,14,10,01,13.90
2006,05,14,10,02,14.00
2006,05,14,10,03,14.00
2006,05,14,10,04,14.00
2006,05,14,10,05,14.10
2006,05,14,10,06,14.20
2006,05,14,10,07,14.20
2006,05,14,10,08,14.20
2006,05,14,10,09,14.20
2006,05,14,10,10,14.20
2006,05,14,10,11,14.20
2006,05,14,10,12,14.30
2006,05,14,10,13,14.30
2006,05,14,10,14,14.40
2006,05,14,10,15,14.40
2006,05,14,10,16,14.50
2006,05,14,10,17,14.50
2006,05,14,10,18,14.60
2006,05,14,10,19,14.60
2006,05,14,10,20,14.70
2006,05,14,10,21,14.70
2006,05,14,10,22,14.80
2006,05,14,10,23,14.80
2006,05,14,10,24,14.90
2006,05,14,10,25,14.90
2006,05,14,10,26,15.00
2006,05,14,10,27,15.00
2006,05,14,10,28,15.10
2006,05,14,10,29,15.20
2006,05,14,10,30,15.30
2006,05,14,10,31,15.30
2006,05,14,10,32,15.30
2006,05,14,10,33,15.30
2006,05,14,10,34,15.30
2006,05,14,10,35,15.30
2006,05,14,10,36,15.40
2006,05,14,10,37,15.40
2006,05,14,10,38,15.50
2006,05,14,10,39,15.50
2006,05,14,10,40,15.50
2006,05,14,10,41,15.50
2006,05,14,10,42,15.50
2006,05,14,10,43,15.50
2006,05,14,10,44,15.60
2006,05,14,10,45,15.60
2006,05,14,10,46,15.60
2006,05,14,10,47,15.60
2006,05,14,10,48,15.70
2006,05,14,10,49,15.80
2006,05,14,10,50,15.90
2006,05,14,10,51,16.10
2006,05,14,10,52,16.30
2006,05,14,10,53,16.40
2006,05,14,10,54,16.40
2006,05,14,10,55,16.20
2006,05,14,10,56,16.10
2006,05,14,10,57,16.10
2006,05,14,10,58,16.10
2006,05,14,10,59,16.10
2006,05,14,11,00,16.10
2006,05,14,11,01,16.10
2006,05,14,11,02,16.10
2006,05,14,11,03,16.20
2006,05,14,11,04,16.20
2006,05,14,11,05,16.20
2006,05,14,11,06,16.20
2006,05,14,11,07,16.20
2006,05,14,11,08,16.20
2006,05,14,11,09,16.20
2006,05,14,11,10,16.20
2006,05,14,11,11,16.30
2006,05,14,11,12,16.30
2006,05,14,11,13,16.30
2006,05,14,11,14,16.20
2006,05,14,11,15,16.10
2006,05,14,11,16,16.10
2006,05,14,11,17,16.20
2006,05,14,11,18,16.30
2006,05,14,11,19,16.40
2006,05,14,11,20,16.40
2006,05,14,11,21,16.30
2006,05,14,11,22,16.20
2006,05,14,11,23,16.30
2006,05,14,11,24,16.20
2006,05,14,11,25,16.20
2006,05,14,11,26,16.20
2006,05,14,11,27,16.20
2006,05,14,11,28,16.20
2006,05,14,11,29,16.10
2006,05,14,11,30,16.10
2006,05,14,11,31,16.10
2006,05,14,11,32,16.10
2006,05,14,11,33,16.10
2006,05,14,11,34,16.10
2006,05,14,11,35,16.20
2006,05,14,11,36,16.40
2006,05,14,11,37,16.40
2006,05,14,11,38,16.40
2006,05,14,11,39,16.40
2006,05,14,11,40,16.40
2006,05,14,11,41,16.40
2006,05,14,11,42,16.30
2006,05,14,11,43,16.20
2006,05,14,11,44,16.10
2006,05,14,11,45,16.10
2006,05,14,11,46,16.10
2006,05,14,11,47,16.10
2006,05,14,11,48,16.20
2006,05,14,11,49,16.20
2006,05,14,11,50,16.30
2006,05,14,11,51,16.30
2006,05,14,11,52,16.20
2006,05,14,11,53,16.30
2006,05,14,11,54,16.30
2006,05,14,11,55,16.40
2006,05,14,11,56,16.40
2006,05,14,11,57,16.40
2006,05,14,11,58,16.40
2006,05,14,11,59,16.40
2006,05,14,12,00,16.50
2006,05,14,12,01,16.70
2006,05,14,12,02,16.70
2006,05,14,12,03,16.70
2006,05,14,12,04,16.70
2006,05,14,12,05,16.70
2006,05,14,12,06,16.70
2006,05,14,12,07,16.80
2006,05,14,12,08,16.90
2006,05,14,12,09,16.90
2006,05,14,12,10,17.00
2006,05,14,12,11,17.10
2006,05,14,12,12,17.10
2006,05,14,12,13,17.10
2006,05,14,12,14,17.10
2006,05,14,12,15,17.00
2006,05,14,12,16,16.90
2006,05,14,12,17,16.90
2006,05,14,12,18,16.90
2006,05,14,12,19,16.90
2006,05,14,12,20,16.90
2006,05,14,12,21,16.90
2006,05,14,12,22,16.90
2006,05,14,12,23,17.00
2006,05,14,12,24,17.00
2006,05,14,12,25,17.10
2006,05,14,12,26,17.10
2006,05,14,12,27,17.20
2006,05,14,12,28,17.30
2006,05,14,12,29,17.30
2006,05,14,12,30,17.40
2006,05,14,12,31,17.40
2006,05,14,12,32,17.40
2006,05,14,12,33,17.40
2006,05,14,12,34,17.50
2006,05,14,12,35,17.70
2006,05,14,12,36,17.70
2006,05,14,12,37,17.80
2006,05,14,12,38,17.90
2006,05,14,12,39,17.90
2006,05,14,12,40,17.80
2006,05,14,12,41,17.80
2006,05,14,12,42,17.80
2006,05,14,12,43,17.80
2006,05,14,12,44,17.70
2006,05,14,12,45,17.70
2006,05,14,12,46,17.80
2006,05,14,12,47,17.80
2006,05,14,12,48,17.80
2006,05,14,12,49,17.80
2006,05,14,12,50,17.80
2006,05,14,12,51,17.90
2006,05,14,12,52,18.00
2006,05,14,12,53,18.10
2006,05,14,12,54,18.10
2006,05,14,12,55,18.00
2006,05,14,12,56,17.90
2006,05,14,12,57,18.00
2006,05,14,12,58,18.10
2006,05,14,12,59,18.00
2006,05,14,13,00,17.90
2006,05,14,13,01,17.90
2006,05,14,13,02,17.80
2006,05,14,13,03,17.80
2006,05,14,13,04,17.90
2006,05,14,13,05,17.90
2006,05,14,13,06,17.90
2006,05,14,13,07,17.90
2006,05,14,13,08,17.90
2006,05,14,13,09,17.90
2006,05,14,13,10,17.90
2006,05,14,13,11,18.00
2006,05,14,13,12,17.90
2006,05,14,13,13,17.90
2006,05,14,13,14,17.90
2006,05,14,13,15,17.90
2006,05,14,13,16,18.00
2006,05,14,13,17,18.10
2006,05,14,13,18,18.20
2006,05,14,13,19,18.40
2006,05,14,13,20,18.40
2006,05,14,13,21,18.40
2006,05,14,13,22,18.40
2006,05,14,13,23,18.30
2006,05,14,13,24,18.30
2006,05,14,13,25,18.40
2006,05,14,13,26,18.40
2006,05,14,13,27,18.50
2006,05,14,13,28,18.50
2006,05,14,13,29,18.50
2006,05,14,13,30,18.40
2006,05,14,13,31,18.40
2006,05,14,13,32,18.40
2006,05,14,13,33,18.40
2006,05,14,13,34,18.40
2006,05,14,13,35,18.30
2006,05,14,13,36,18.20
2006,05,14,13,37,18.20
2006,05,14,13,38,18.20
2006,05,14,13,39,18.30
2006,05,14,13,40,18.50
2006,05,14,13,41,18.60
2006,05,14,13,42,18.70
2006,05,14,13,43,18.80
2006,05,14,13,44,18.80
2006,05,14,13,45,18.70
2006,05,14,13,46,18.80
2006,05,14,13,47,18.90
2006,05,14,13,48,19.00
2006,05,14,13,49,19.10
2006,05,14,13,50,19.10
2006,05,14,13,51,19.00
2006,05,14,13,52,18.90
2006,05,14,13,53,18.80
2006,05,14,13,54,18.70
2006,05,14,13,55,18.60
2006,05,14,13,56,18.60
2006,05,14,13,57,18.60
2006,05,14,13,58,18.60
2006,05,14,13,59,18.70
2006,05,14,14,00,18.80
2006,05,14,14,01,18.80
2006,05,14,14,02,18.80
2006,05,14,14,03,18.90
2006,05,14,14,04,18.90
2006,05,14,14,05,18.90
2006,05,14,14,06,18.90
2006,05,14,14,07,19.00
2006,05,14,14,08,19.10
2006,05,14,14,09,19.10
2006,05,14,14,10,19.10
2006,05,14,14,11,19.10
2006,05,14,14,12,19.20
2006,05,14,14,13,19.20
2006,05,14,14,14,19.20
2006,05,14,14,15,19.20
2006,05,14,14,16,19.20
2006,05,14,14,17,19.10
2006,05,14,14,18,19.00
2006,05,14,14,19,19.00
2006,05,14,14,20,19.10
2006,05,14,14,21,19.20
2006,05,14,14,22,19.10
2006,05,14,14,23,19.10
2006,05,14,14,24,19.10
2006,05,14,14,25,19.10
2006,05,14,14,26,19.10
2006,05,14,14,27,19.10
2006,05,14,14,28,19.10
2006,05,14,14,29,19.20
2006,05,14,14,30,19.20
2006,05,14,14,31,19.20
2006,05,14,14,32,19.20
2006,05,14,14,33,19.30
2006,05,14,14,34,19.30
2006,05,14,14,35,19.30
2006,05,14,14,36,19.30
2006,05,14,14,37,19.40
2006,05,14,14,38,19.30
2006,05,14,14,39,19.30
2006,05,14,14,40,19.30
2006,05,14,14,41,19.20
2006,05,14,14,42,19.30
2006,05,14,14,43,19.30
2006,05,14,14,44,19.40
2006,05,14,14,45,19.40
2006,05,14,14,46,19.40
2006,05,14,14,47,19.40
2006,05,14,14,48,19.40
2006,05,14,14,49,19.50
2006,05,14,14,50,19.50
2006,05,14,14,51,19.40
2006,05,14,14,52,19.50
2006,05,14,14,53,19.60
2006,05,14,14,54,19.70
2006,05,14,14,55,19.70
2006,05,14,14,56,19.80
2006,05,14,14,57,19.80
2006,05,14,14,58,19.80
2006,05,14,14,59,19.80
2006,05,14,15,00,19.90
2006,05,14,15,01,20.00
2006,05,14,15,02,20.10
2006,05,14,15,03,20.10
2006,05,14,15,04,19.90
2006,05,14,15,05,19.80
2006,05,14,15,06,19.90
2006,05,14,15,07,19.80
2006,05,14,15,08,19.80
2006,05,14,15,09,19.80
2006,05,14,15,10,19.80
2006,05,14,15,11,19.90
2006,05,14,15,12,19.90
2006,05,14,15,13,19.90
2006,05,14,15,14,19.90
2006,05,14,15,15,19.90
2006,05,14,15,16,19.80
2006,05,14,15,17,19.80
2006,05,14,15,18,19.70
2006,05,14,15,19,19.70
2006,05,14,15,20,19.80
2006,05,14,15,21,19.80
2006,05,14,15,22,19.80
2006,05,14,15,23,19.80
2006,05,14,15,24,19.80
2006,05,14,15,25,19.80
2006,05,14,15,26,19.90
2006,05,14,15,27,19.90
2006,05,14,15,28,19.90
2006,05,14,15,29,19.90
2006,05,14,15,30,20.10
2006,05,14,15,31,20.00
2006,05,14,15,32,19.90
2006,05,14,15,33,19.80
2006,05,14,15,34,19.80
2006,05,14,15,35,19.80
2006,05,14,15,36,19.80
2006,05,14,15,37,19.80
2006,05,14,15,38,19.90
2006,05,14,15,39,19.90
2006,05,14,15,40,19.90
2006,05,14,15,41,20.00
2006,05,14,15,42,20.10
2006,05,14,15,43,20.10
2006,05,14,15,44,20.00
2006,05,14,15,45,20.10
2006,05,14,15,46,20.20
2006,05,14,15,47,20.20
2006,05,14,15,48,20.20
2006,05,14,15,49,20.20
2006,05,14,15,50,20.30
2006,05,14,15,51,20.40
2006,05,14,15,52,20.50
2006,05,14,15,53,20.60
2006,05,14,15,54,20.50
2006,05,14,15,55,20.50
2006,05,14,15,56,20.50
2006,05,14,15,57,20.40
2006,05,14,15,58,20.40
2006,05,14,15,59,20.40
2006,05,14,16,00,20.30
2006,05,14,16,01,20.30
2006,05,14,16,02,20.30
2006,05,14,16,03,20.30
2006,05,14,16,04,20.40
2006,05,14,16,05,20.40
2006,05,14,16,06,20.40
2006,05,14,16,07,20.40
2006,05,14,16,08,20.30
2006,05,14,16,09,20.30
2006,05,14,16,10,20.30
2006,05,14,16,11,20.20
2006,05,14,16,12,20.20
2006,05,14,16,13,20.20
2006,05,14,16,14,20.20
2006,05,14,16,15,20.20
2006,05,14,16,16,20.20
2006,05,14,16,17,20.20
2006,05,14,16,18,20.20
2006,05,14,16,19,20.30
2006,05,14,16,20,20.30
2006,05,14,16,21,20.30
2006,05,14,16,22,20.30
2006,05,14,16,23,20.40
2006,05,14,16,24,20.50
2006,05,14,16,25,20.60
2006,05,14,16,26,20.70
2006,05,14,16,27,20.80
2006,05,14,16,28,20.80
2006,05,14,16,29,20.80
2006,05,14,16,30,20.80
2006,05,14,16,31,20.80
2006,05,14,16,32,20.80
2006,05,14,16,33,20.70
2006,05,14,16,34,20.70
2006,05,14,16,35,20.60
2006,05,14,16,36,20.60
2006,05,14,16,37,20.60
2006,05,14,16,38,20.60
2006,05,14,16,39,20.50
2006,05,14,16,40,20.50
2006,05,14,16,41,20.50
2006,05,14,16,42,20.50
2006,05,14,16,43,20.50
2006,05,14,16,44,20.50
2006,05,14,16,45,20.50
2006,05,14,16,46,20.50
2006,05,14,16,47,20.50
2006,05,14,16,48,20.50
2006,05,14,16,49,20.50
2006,05,14,16,50,20.60
2006,05,14,16,51,20.60
2006,05,14,16,52,20.60
2006,05,14,16,53,20.50
2006,05,14,16,54,20.50
2006,05,14,16,55,20.60
2006,05,14,16,56,20.60
2006,05,14,16,57,20.70
2006,05,14,16,58,20.70
2006,05,14,16,59,20.80
2006,05,14,17,00,20.80
2006,05,14,17,01,20.90
2006,05,14,17,02,21.00
2006,05,14,17,03,20.90
2006,05,14,17,04,20.90
2006,05,14,17,05,21.00
2006,05,14,17,06,20.90
2006,05,14,17,07,20.90
2006,05,14,17,08,20.90
2006,05,14,17,09,20.90
2006,05,14,17,10,20.80
2006,05,14,17,11,20.90
2006,05,14,17,12,20.90
2006,05,14,17,13,20.90
2006,05,14,17,14,20.90
2006,05,14,17,15,20.90
2006,05,14,17,16,20.90
2006,05,14,17,17,20.90
2006,05,14,17,18,20.90
2006,05,14,17,19,20.90
2006,05,14,17,20,21.00
2006,05,14,17,21,20.90
2006,05,14,17,22,20.90
2006,05,14,17,23,20.90
2006,05,14,17,24,20.80
2006,05,14,17,25,20.80
2006,05,14,17,26,20.80
2006,05,14,17,27,20.80
2006,05,14,17,28,20.80
2006,05,14,17,29,20.80
2006,05,14,17,30,20.90
2006,05,14,17,31,20.90
2006,05,14,17,32,21.00
2006,05,14,17,33,21.00
2006,05,14,17,34,21.10
2006,05,14,17,35,21.20
2006,05,14,17,36,21.20
2006,05,14,17,37,21.20
2006,05,14,17,38,21.20
2006,05,14,17,39,21.20